OSCAR 7 (AO-7) 1 07530U 74089B 26037.60691477 -.00000047 00000+0 -81467-6 0 9995 2 07530 101.9972 49.4633 0012261 21.7009 99.2161 12.53695644344156 PHASE 3B (AO-10) 1 14129U 83058B 26036.76544083 .00000196 00000+0 00000+0 0 9999 2 14129 25.9610 241.7283 6056240 79.1046 339.8337 2.05870291292787 UOSAT 2 (UO-11) 1 14781U 84021B 26036.85138238 .00003200 00000+0 33425-3 0 9995 2 14781 97.7897 4.0571 0006025 256.2903 103.7644 14.90386170237564 LUSAT (LO-19) 1 20442U 90005G 26037.64277893 .00000210 00000+0 91833-4 0 9990 2 20442 98.8950 55.7899 0010823 225.2892 134.7411 14.34074615883689 EYESAT A (AO-27) 1 22825U 93061C 26036.75106129 .00000193 00000+0 90537-4 0 9996 2 22825 98.7051 104.1259 0009342 122.7781 237.4303 14.30902163688204 ITAMSAT (IO-26) 1 22826U 93061D 26037.11899557 .00000201 00000+0 92613-4 0 9999 2 22826 98.6997 104.3987 0009995 107.3909 252.8368 14.31325395688566 RADIO ROSTO (RS15) 1 23439U 94085A 26037.65435009 -.00000052 00000+0 -25979-3 0 9990 2 23439 64.8164 154.3247 0151540 27.9403 332.9556 11.27583215281187 JAS-2 (FO-29) 1 24278U 96046B 26037.59505044 -.00000012 00000+0 21063-4 0 9997 2 24278 98.5422 264.2148 0350843 75.3047 288.6702 13.53266622455509 TECHSAT 1B (GO-32) 1 25397U 98043D 26037.55159400 .00000134 00000+0 78016-4 0 9990 2 25397 98.9987 27.0710 0000753 179.7142 180.4037 14.24397040432737 ISS (ZARYA) 1 25544U 98067A 26037.53476767 .00011792 00000+0 22585-3 0 9997 2 25544 51.6316 226.3678 0011132 70.9201 289.2992 15.48439420551502 PCSAT (NO-44) 1 26931U 01043C 26037.61570457 .00000239 00000+0 12031-3 0 9995 2 26931 67.0487 221.9755 0007040 266.3388 93.6908 14.31893981271757 SAUDISAT 1C (SO-50) 1 27607U 02058C 26037.59166838 .00002538 00000+0 31740-3 0 9996 2 27607 64.5527 172.9386 0074462 286.2991 72.9934 14.82656742245098 CUTE-1 (CO-55) 1 27844U 03031E 26037.58262467 .00000483 00000+0 22815-3 0 9995 2 27844 98.6775 47.7702 0009212 198.7872 161.2968 14.24239444173081 CUBESAT XI-IV (CO-57) 1 27848U 03031J 26037.57641856 .00000402 00000+0 19568-3 0 9993 2 27848 98.6804 47.5817 0008777 217.9192 142.1369 14.23538553172799 MOZHAETS 4 (RS22) 1 27939U 03042A 26037.61860101 .00002183 00000+0 34670-3 0 9996 2 27939 98.3399 218.3222 0010757 328.1842 119.8050 14.73163668196321 CUBESAT XI-V 1 28895U 05043F 26037.38433641 .00002857 00000+0 46108-3 0 9997 2 28895 98.2781 190.4312 0013187 259.5978 100.3743 14.72176382 82508 CUTE-1.7+APD II (CO-65) 1 32785U 08021C 26037.59593760 .00008332 00000+0 54616-3 0 9998 2 32785 97.8167 16.5343 0011231 108.6091 251.6357 15.07910921965509 SEEDS II (CO-66) 1 32791U 08021J 26037.42930365 .00025036 00000+0 92558-3 0 9990 2 32791 97.7495 29.6032 0005385 69.2409 290.9405 15.27690520967297 YUBILEINY (RS30) 1 32953U 08025A 26037.56265947 .00000077 00000+0 48174-3 0 9999 2 32953 82.4988 76.6974 0018516 234.2548 125.6811 12.43175002803461 KKS-1 (KISEKI) 1 33499U 09002H 26037.62532596 .00002487 00000+0 31492-3 0 9997 2 33499 98.1187 318.0517 0008052 4.7076 355.4211 14.82702666916849 SWISSCUBE 1 35932U 09051B 26037.20498355 .00001835 00000+0 37445-3 0 9993 2 35932 98.4129 302.7853 0005535 260.9477 99.1097 14.62167394870012 BEESAT-1 1 35933U 09051C 26037.21670984 .00001553 00000+0 32335-3 0 9995 2 35933 98.4058 302.7004 0004064 278.7991 81.2749 14.61455324870058 ITUPSAT1 1 35935U 09051E 26037.16228930 .00001405 00000+0 30158-3 0 9998 2 35935 98.4147 301.9709 0006341 290.0402 70.0115 14.60196273869613 XIWANG-1 (HOPE-1) 1 36122U 09072B 26037.60124618 .00000183 00000+0 59556-3 0 9992 2 36122 100.3869 353.6204 0007518 167.5482 192.5818 13.16435796775828 O/OREOS (USA 219) 1 37224U 10062C 26036.97610069 .00004654 00000+0 45114-3 0 9998 2 37224 71.9721 17.4114 0016607 310.5055 49.4667 14.93077499 97054 JUGNU 1 37839U 11058B 26037.24039310 .00000549 00000+0 14726-3 0 9995 2 37839 19.9623 23.9494 0018781 70.6819 52.3180 14.13726855740472 SRMSAT 1 37841U 11058D 26037.29582517 .00000512 00000+0 13390-3 0 9991 2 37841 19.9712 131.7097 0011564 203.5607 189.1597 14.11535751739307 STRAND-1 1 39090U 13009E 26037.44161493 .00000519 00000+0 18917-3 0 9997 2 39090 98.3855 220.9150 0007589 260.8148 99.2180 14.37066175678288 ZACUBE-1 (TSHEPISOSAT) 1 39417U 13066B 26037.31340967 .00009735 00000+0 77506-3 0 9992 2 39417 97.8175 358.9897 0040926 328.4183 31.4584 14.99930504661105 GOMX-1 1 39430U 13066Q 26037.62890100 .00003848 00000+0 58407-3 0 9998 2 39430 97.6577 246.2693 0130529 136.3210 224.8416 14.68964148650740 CUBEBUG-2 (LO-74) 1 39440U 13066AA 26037.25983929 .00006959 00000+0 65825-3 0 9998 2 39440 97.8774 345.9045 0060765 100.9771 259.8292 14.92574640657459 FUNCUBE-1 (AO-73) 1 39444U 13066AE 26037.37949336 .00013644 00000+0 89441-3 0 9998 2 39444 97.8148 6.4139 0035951 289.8815 69.8539 15.07283522659948 UWE-3 1 39446U 13066AG 26036.82439138 .00010655 00000+0 93494-3 0 9995 2 39446 97.8559 352.2552 0051670 39.3948 321.1012 14.95763546657930 UNISAT-6 1 40012U 14033C 26037.39379491 .00005823 00000+0 63742-3 0 9993 2 40012 97.7673 192.6223 0046541 138.6204 221.8553 14.87375464626714 DUCHIFAT-1 1 40021U 14033M 26037.60523819 .00061934 00000+0 12536-2 0 9991 2 40021 98.0696 80.4574 0006129 173.6658 186.4668 15.46205528635460 QB50P1 1 40025U 14033R 26036.89899582 .00015867 00000+0 83293-3 0 9991 2 40025 98.0996 39.0574 0007892 325.8248 34.2474 15.15798611633123 LILACSAT-2 1 40908U 15049K 26037.60427683 .00024485 00000+0 48806-3 0 9995 2 40908 97.4856 69.7706 0007895 21.0170 339.1403 15.46845718575534 FOX-1A (AO-85) 1 40967U 15058D 26037.18558849 .00004765 00000+0 43338-3 0 9996 2 40967 64.7772 325.8322 0130397 108.4131 253.1210 14.90101979 94049 CAS-2T & KS-1Q 1 41847U 16066G 26037.18743039 .00002613 00000+0 37463-3 0 9993 2 41847 98.3945 114.3764 0343360 166.7614 194.2877 14.44353790485881 RADFXSAT (FOX-1B) 1 43017U 17073E 26037.59297897 .00011848 00000+0 53963-3 0 9997 2 43017 97.4895 267.5530 0158878 58.9384 302.7331 15.10166786445666 DIWATA-2B 1 43678U 18084H 26037.63384418 .00001734 00000+0 14534-3 0 9998 2 43678 98.1066 228.3943 0008476 223.6285 136.4268 14.99807398396640 ES'HAIL 2 1 43700U 18090A 26037.63100284 .00000146 00000+0 00000+0 0 9993 2 43700 0.0149 119.7562 0002342 242.4619 27.4444 1.00271081 26362 FOX-1CLIFF (AO-95) 1 43770U 18099N 26037.12615980 .00018282 00000+0 76568-3 0 9993 2 43770 97.4571 98.0317 0010617 90.5311 269.7143 15.23545043393243 ITASAT 1 43786U 18099AE 26037.12130193 .00010854 00000+0 54861-3 0 9997 2 43786 97.4230 91.2908 0014672 90.2664 270.0251 15.17138289393020 JY1SAT (JO-97) 1 43803U 18099AX 26037.61398284 .00020729 00000+0 73468-3 0 9994 2 43803 97.4316 100.3071 0006420 25.8049 334.3510 15.29106123393646 UWE-4 1 43880U 18111E 26037.33302485 .00036263 00000+0 97075-3 0 9991 2 43880 97.5859 320.5384 0011954 77.8863 282.3720 15.37872321390614 TIANYAN 01 1 44881U 19093C 26037.65004735 .00001768 00000+0 20676-3 0 9990 2 44881 97.7671 113.0141 0014152 150.7630 209.4380 14.86270017332022 RS-44 & BREEZE-KM R/B 1 44909U 19096E 26037.60105656 .00000009 00000+0 -14953-4 0 9993 2 44909 82.5173 66.4833 0218669 89.7293 272.8862 12.79746877285642 SALSAT 1 46495U 20068K 26037.56368961 .00011530 00000+0 43021-3 0 9998 2 46495 97.8835 32.9107 0011714 48.2805 311.9433 15.27522863295408 XW-3 (CAS-9) 1 50466U 21131B 26037.60972940 .00000880 00000+0 28639-3 0 9990 2 50466 98.4996 130.7401 0005064 123.3299 236.8375 14.41208825216309 GREENCUBE (IO-117) 1 53109U 22080E 26036.82714451 -.00000003 00000+0 00000+0 0 9991 2 53109 70.1644 343.9250 0009171 317.3784 42.6164 6.42583143 83627 UMKA 1 (RS40S) 1 57172U 23091G 26037.61801528 .00008700 00000+0 41666-3 0 9996 2 57172 97.5244 96.8496 0012529 209.2936 150.7597 15.19117656144170 CUBESX-HSE 3 (RS42S) 1 57178U 23091N 26037.65567567 .00021511 00000+0 79633-3 0 9998 2 57178 97.5272 101.8234 0011467 188.3443 171.7607 15.27627399144471 MONITOR-3 (RS58S) 1 57180U 23091Q 26037.55164497 .00020204 00000+0 81091-3 0 9994 2 57180 97.5266 100.1976 0012183 193.9852 166.1050 15.24942371144369 MONITOR-4 (RS57S) 1 57182U 23091S 26037.60407537 .00017326 00000+0 69457-3 0 9990 2 57182 97.5259 100.2130 0012170 194.2988 165.7907 15.25016055144375 MONITOR-2 (RS39S) 1 57184U 23091U 26037.61974363 .00009206 00000+0 46148-3 0 9999 2 57184 97.5269 96.7483 0010999 199.7567 160.3242 15.17522969144143 SVYATOBOR 1 (RS60S) 1 57187U 23091X 26037.65267948 .00015629 00000+0 64428-3 0 9997 2 57187 97.5272 100.8657 0009833 183.9245 176.1917 15.24122313144414 VIZARD-METEO (RS38S) 1 57189U 23091Z 26037.61005755 .00026314 00000+0 86314-3 0 9992 2 57189 97.5259 104.8064 0008256 168.8215 191.3211 15.31561103144670 NANOZOND 1 (RS49S) 1 57190U 23091AA 26037.62067872 .00161444 00000+0 16553-2 0 9994 2 57190 97.5155 115.6319 0003281 165.0788 195.0568 15.64427838145407 POLYTECH-UNIVERSE 3 (R*) 1 57191U 23091AB 26037.66340944 .00009056 00000+0 45117-3 0 9992 2 57191 97.5240 96.3003 0015054 219.2764 140.7378 15.17698680144144 UTMN 2 (RS27S) 1 57203U 23091AP 26037.61661563 .00019841 00000+0 71558-3 0 9995 2 57203 97.5261 103.2559 0008857 173.6304 186.5050 15.28528433144573 KUZGTU 1 (RS47S) 1 57217U 23091AV 26037.60928832 .00019098 00000+0 73038-3 0 9993 2 57217 97.5247 100.9566 0011545 191.4533 168.6445 15.26574045144436 SONATE-2 1 59112U 24043Q 26036.96234896 .00043281 00000+0 80026-3 0 9991 2 59112 97.5360 180.4379 0008229 328.0393 32.0357 15.48897459107515 MESAT1 1 60209U 24125G 26037.56114730 .00045488 00000+0 78433-3 0 9992 2 60209 97.2482 253.1343 0013187 346.5954 13.4945 15.50813136 89240 OOV-CUBE (TUBSAT-30) 1 60240U 24128F 26037.20960145 .00004346 00000+0 33438-3 0 9994 2 60240 61.9968 322.0492 0056644 105.7950 254.9396 15.02022210 86431 COLIBRI-S (RS67S) 1 61746U 24199M 26037.61430295 .00033036 00000+0 77400-3 0 9992 2 61746 97.3202 270.6464 0011040 41.9914 318.2177 15.41967636117255 HORS 3 (RS81S) 1 61753U 24199U 26037.60336303 .00039422 00000+0 79906-3 0 9992 2 61753 97.3172 271.5386 0009440 47.3691 312.8353 15.46244016117324 HORS 4 (RS82S) 1 61754U 24199V 26037.59401287 .00045375 00000+0 84576-3 0 9998 2 61754 97.3145 272.1143 0009371 46.5051 313.6977 15.48643678117361 HORIZON (RS59S) 1 61757U 24199Y 26037.63173669 .00122595 00000+0 13402-2 0 9995 2 61757 97.3136 275.2210 0007667 33.3655 326.8085 15.62887187117562 ARCTICSAT 1 (RS74S) 1 61762U 24199AD 26037.63785485 .00102627 00000+0 12560-2 0 9994 2 61762 97.3152 274.9120 0007696 30.3898 329.7804 15.60013075117544 SIT-2086 1 61764U 24199AF 26037.60458910 .00033850 00000+0 69419-3 0 9990 2 61764 97.3168 272.2959 0008701 32.0037 328.1739 15.45940673114213 RUZAEVKA 390 (RS44S) 1 61766U 24199AH 26036.28668939 .00313717 00000+0 17151-2 0 9997 2 61766 97.3049 276.2746 0005522 43.7248 316.4455 15.78991128114371 HYPERVIEW 1G (RS66S) 1 61772U 24199AP 26037.62743451 .00077140 00000+0 11843-2 0 9995 2 61772 97.3141 272.9761 0010809 43.2999 316.9102 15.53954934114273 ALTAIR (RS65S) 1 61779U 24199AW 26037.66343464 .00018630 00000+0 56237-3 0 9992 2 61779 97.3218 267.9631 0015289 58.3980 301.8753 15.34199814117083 ASRTU-1 (AO-123) 1 61781U 24199AY 26037.62541742 .00014880 00000+0 46137-3 0 9991 2 61781 97.3197 267.5034 0015825 59.6602 300.6203 15.33389586113906 TUSUR GO (RS78S) 1 61782U 24199AZ 26037.64829571 .00132884 00000+0 14558-2 0 9999 2 61782 97.3093 274.2593 0009180 43.1831 317.0146 15.62783440114364 SAMSAT-IONOSPHERE (RS7*) 1 61784U 24199BB 26037.64734252 .00045121 00000+0 88686-3 0 9993 2 61784 97.3164 271.3339 0012463 47.9008 312.3299 15.47074963117318 RTU MIREA 1 (RS51S) 1 61785U 24199BC 26037.61563700 .00051317 00000+0 95363-3 0 9993 2 61785 97.3159 271.6666 0012040 46.0433 314.1809 15.48669927114182 TEVEL2-4 1 63213U 25052D 26037.63290079 .00024117 00000+0 84192-3 0 9994 2 63213 97.4058 294.1604 0002174 159.3510 200.7819 15.29586563 50129 TEVEL2-5 1 63214U 25052E 26037.64158219 .00024192 00000+0 84723-3 0 9998 2 63214 97.4062 294.1475 0002053 162.3482 197.7830 15.29482572 50122 TEVEL2-6 1 63215U 25052F 26037.65054984 .00024128 00000+0 84612-3 0 9990 2 63215 97.4061 294.1429 0002112 166.2556 193.8742 15.29438214 50125 TEVEL2-1 1 63217U 25052H 26037.64067380 .00023500 00000+0 83399-3 0 9999 2 63217 97.4037 293.8949 0001569 183.1851 176.9380 15.29054328 50113 TEVEL2-3 1 63218U 25052J 26037.63891757 .00023541 00000+0 83465-3 0 9991 2 63218 97.4035 293.9026 0001583 182.3283 177.7950 15.29085479 50118 TEVEL2-2 1 63219U 25052K 26037.64136560 .00023544 00000+0 83549-3 0 9993 2 63219 97.4041 293.8962 0001545 183.7689 176.3539 15.29056820 50113 TEVEL2-9 1 63237U 25052AD 26037.59591268 .00022572 00000+0 84168-3 0 9995 2 63237 97.4097 293.4737 0004643 239.9340 120.1439 15.27427447 50065 TEVEL2-7 1 63238U 25052AE 26037.15742634 .00023265 00000+0 87277-3 0 9997 2 63238 97.4102 292.9990 0004748 238.9425 121.1348 15.27220595 49992 TEVEL2-8 1 63239U 25052AF 26037.62262361 .00021478 00000+0 80636-3 0 9990 2 63239 97.4098 293.4427 0004738 238.8655 121.2119 15.27212005 50065 HADES-ICM 1 63492U 25052BN 26036.66560114 .00141387 00000+0 25651-2 0 9998 2 63492 97.4003 296.1435 0003805 209.7437 150.3598 15.49070261 50176 INNOSAT 16 (RS92S7) 1 64878U 25155C 26037.59251507 .00009814 00000+0 41166-3 0 9995 2 64878 97.4416 5.4258 0008799 289.8655 70.1634 15.23661530 60779 GEOSCAN 6 (RS92S6) 1 64879U 25155D 26037.59915907 .00015450 00000+0 58283-3 0 9998 2 64879 97.4417 6.0454 0005825 284.3596 75.6996 15.27119718 60813 GEOSCAN 1 (RS92S1) 1 64880U 25155E 26037.57743316 .00016544 00000+0 61694-3 0 9996 2 64880 97.4417 6.0796 0005694 285.2926 74.7683 15.27487244 60810 239ALFEROV (RS61S) 1 64881U 25155F 26037.63150029 .00020878 00000+0 74791-3 0 9994 2 64881 97.4423 6.3391 0005136 285.0109 75.0563 15.28762997 60839 GEOSCAN 2 (RS92S2) 1 64890U 25155Q 26037.59598523 .00016569 00000+0 61221-3 0 9990 2 64890 97.4414 6.1950 0004987 266.0954 93.9715 15.27793000 60823 GEOSCAN 5 (RS92S5) 1 64891U 25155R 26037.58303450 .00021115 00000+0 74865-3 0 9994 2 64891 97.4416 6.3761 0004082 297.7945 62.2880 15.29102187 60830 GEOSCAN 4 (RS92S4) 1 64892U 25155S 26037.57738336 .00021178 00000+0 74883-3 0 9998 2 64892 97.4419 6.3890 0004060 298.7068 61.3763 15.29191040 60836 GEOSCAN 3 (RS92S3) 1 64893U 25155T 26037.57976304 .00024797 00000+0 84694-3 0 9999 2 64893 97.4413 6.5281 0003693 304.4375 55.6516 15.30289507 60845 INNOSAT 3 (RS92S0) 1 64894U 25155U 26037.63821143 .00041380 00000+0 12431-2 0 9993 2 64894 97.4388 7.0348 0002587 317.1168 42.9873 15.34299309 60883